COSMOS 2457 (733)

Last updated on Aug. 14, 2020, 5:31 a.m. UTC

1 36112U 09070B   20226.32979262 -.00000010  00000-0  00000+0 0  9992
2 36112  64.2161 144.0361 0004711 176.1967 110.1523  2.13101543 82995
UTC
Height (km)
Latitude
Longitude
Inclination
Orbital Period
UTC large
Height (km)
Speed (km/s)
/
Latitude / Longitude
Inclination (degrees)
Orbital Period (minutes)
Azimuth
Elevation
Range (km)
Doppler Factor
iOS Compass Heading
iOS Angle

Next 30 passes for location: Hong Kong

Rise time Rise Azimuth (degrees) Set time Set Azimuth (degrees) Duration Max altitude (degrees)

No matching passes for this satellites